Flag for Austria Weather past 2 weeks in Kapfenberg, Styria, Austria

Now
61 °F

Scattered clouds.


Feels Like: 61 °F
Forecast: 43 / 70 °F
Wind: 10 mph from West

Location: Zeltweg

Current Time: Aug 27, 2014 at 9:08:14 PM

Latest Report: Aug 27, 2014 at 7:50 PM


Visibility: 25 mi

Pressure: 30.01 "Hg

Humidity: 59%

Dew point: 46 °F

Location of KapfenbergLocation

Historic Weather in Kapfenberg — Graph

°F

Kapfenberg temperature yesterday

Maximum temperature yesterday: 70 °F (at 1:50 PM)
Minimum temperature yesterday: 48 °F (at 5:50 AM)
Average temperature yesterday: 62 °F

Past Weeks' High & Low Weather Summary

 TemperatureHumidityPressure
High84 °F (Aug 13, 5:50 PM)100% (Aug 12, 7:50 PM)30.15 "Hg (Aug 12, 7:50 PM)
Low43 °F (Aug 18, 5:50 AM)36% (Aug 27, 1:20 PM)29.71 "Hg (Aug 13, 1:50 PM)
Average60 °F74%29.99 "Hg
* Reported Aug 12 7:50 PM — Aug 27 7:20 PM, Kapfenberg, Weather by CustomWeather, © 2014

Note: Actual official high and low records may vary slightly from our data, if they occured in-between our weather recording intervals... More about our weather records

Advertising

Kapfenberg weather history for previous 24 hours

 ConditionsComfort  
Time TempWeatherWind HumidityBarometerVisibility
7:20 PM
Aug 27
63 °FScattered clouds.12 mph56%30.01 "Hg25 mi
6:50 PM63 °FScattered clouds.16 mph52%29.98 "Hg25 mi
6:20 PM66 °FScattered clouds.15 mph49%29.98 "Hg25 mi
5:50 PM66 °FScattered clouds.13 mph46%29.98 "Hg25 mi
4:20 PM70 °FScattered clouds.12 mph40%29.95 "Hg25 mi
3:50 PM72 °FScattered clouds.13 mph41%29.92 "Hg25 mi
3:20 PM72 °FScattered clouds.12 mph36%29.92 "Hg25 mi
2:50 PM73 °FScattered clouds.14 mph36%29.92 "Hg25 mi
2:20 PM73 °FPartly sunny.12 mph36%29.89 "Hg25 mi
1:20 PM73 °FScattered clouds.13 mph36%29.89 "Hg25 mi
12:50 PM70 °FScattered clouds.18 mph43%29.89 "Hg25 mi
12:20 PM72 °FPartly sunny.16 mph38%29.89 "Hg25 mi
11:50 AM72 °FPartly sunny.15 mph38%29.86 "Hg25 mi
11:20 AM70 °FPartly sunny.18 mph38%29.86 "Hg22 mi
10:50 AM70 °FScattered clouds.13 mph43%29.86 "Hg22 mi
10:20 AM66 °FScattered clouds.2 mph73%29.86 "Hg19 mi
9:50 AM61 °FScattered clouds.3 mph88%29.86 "Hg12 mi
9:20 AM61 °FScattered clouds.3 mph77%29.86 "Hg9 mi
8:50 AM61 °FScattered clouds.1 mph83%29.86 "Hg9 mi
8:20 AM59 °FScattered clouds.2 mph88%29.86 "Hg6 mi
7:50 AM57 °FScattered clouds.2 mph100%29.86 "Hg5 mi
7:20 AM57 °FBroken clouds.1 mph100%29.83 "Hg5 mi
6:50 AM57 °FPassing clouds.2 mph94%29.83 "Hg5 mi
5:50 AM55 °FFog.2 mph100%29.83 "Hg3 mi
4:50 AM57 °FPassing clouds.1 mph100%29.83 "Hg9 mi
10:50 PM
Aug 26
61 °FPassing clouds.5 mph83%29.83 "Hg9 mi
9:50 PM61 °FPassing clouds.3 mph88%29.83 "Hg9 mi
Weather by CustomWeather, © 2014

See weather overviewHow to use our weather pages